Home   Weather   Gander   Past weeks

Flag for Canada Past Weather in Gander, Newfoundland and Labrador, Canada — Yesterday and Last 2 Weeks

Now
30 °F

Passing clouds.


Feels Like: 23 °F
Forecast: 29 / 42 °F
Wind: 8 mph from West

Location: Gander Int. Airport

Current Time: Apr 24, 2017 at 7:16:11 am

Latest Report: Apr 24, 2017 at 6:30 am


Visibility: 20 mi

Pressure: 29.95 "Hg

Humidity: 93%

Dew Point: 28 °F

Location of GanderLocation

Past Weather in Gander — Graph

°F

Gander Temperature Yesterday

Maximum temperature yesterday: 32 °F (at 12:30 pm)
Minimum temperature yesterday: 28 °F (at 10:44 pm)
Average temperature yesterday: 31 °F

High & Low Weather Summary for the Past Weeks

 TemperatureHumidityPressure
High46 °F (Apr 10, 3:30 pm)100% (Apr 9, 6:59 am)30.63 "Hg (Apr 9, 6:59 am)
Low14 °F (Apr 19, 6:13 am)49% (Apr 16, 4:30 pm)29.70 "Hg (Apr 17, 7:30 am)
Average31 °F86%30.10 "Hg
* Reported Apr 9 5:30 am — Apr 24 5:30 am, Gander, Weather by CustomWeather, © 2017

Note: Actual official high and low records may vary slightly from our data, if they occured in-between our weather recording intervals... More about our weather records

Advertising

Gander Weather History for the Previous 24 Hours

Scroll right to see more
 ConditionsComfort  
Time TempWeatherWind HumidityBarometerVisibility
5:30 am
Mon, Apr 24
30 °FPassing clouds.12 mph93%29.93 "Hg20 mi
4:30 am30 °FPassing clouds.9 mph93%29.91 "Hg15 mi
3:30 am28 °FPassing clouds.9 mph100%29.89 "Hg15 mi
2:30 am28 °FPassing clouds.8 mph100%29.87 "Hg15 mi
1:30 am28 °FIce fog.6 mph100%29.87 "Hg3 mi
1:08 am28 °FIce fog.6 mph100%29.87 "Hg4 mi
12:19 am28 °FIce fog.6 mph100%29.86 "Hg1 mi
11:30 pm
Sun, Apr 23
28 °FIce fog.7 mph100%29.86 "Hg1 mi
11:08 pm30 °FIce fog.6 mph93%29.85 "Hg3 mi
10:44 pm28 °FIce fog.2 mph100%29.85 "Hg1 mi
10:30 pm30 °FIce fog.3 mph93%29.85 "Hg1 mi
9:30 pm30 °FLight snow. Partly cloudy.3 mph100%29.86 "Hg3 mi
9:05 pm30 °FLight snow. Overcast.3 mph100%29.85 "Hg3 mi
8:30 pm30 °FLight snow. Overcast.3 mph100%29.85 "Hg2 mi
8:01 pm32 °FLight snow. Overcast.2 mph93%29.84 "Hg2 mi
7:30 pm32 °FLight snow. Mostly cloudy.5 mph93%29.84 "Hg2 mi
7:10 pm32 °FLight snow. Mostly cloudy.5 mph93%29.83 "Hg2 mi
6:30 pm32 °FLight snow. Low clouds.6 mph93%29.82 "Hg1 mi
6:10 pm32 °FLight snow. Mostly cloudy.5 mph93%29.82 "Hg1 mi
5:30 pm32 °FLight snow. Mostly cloudy.6 mph93%29.82 "Hg1 mi
5:08 pm32 °FLight snow. Mostly cloudy.6 mph93%29.81 "Hg1 mi
4:30 pm32 °FLight snow. Low clouds.5 mph93%29.82 "Hg1 mi
4:00 pm32 °FLight snow. Low clouds.7 mph93%29.82 "Hg1 mi
3:30 pm32 °FLight snow. Mostly cloudy.6 mph93%29.82 "Hg2 mi
2:30 pm32 °FLight snow. Mostly cloudy.8 mph93%29.82 "Hg2 mi
1:54 pm32 °FLight snow. Mostly cloudy.6 mph93%29.82 "Hg1 mi
1:30 pm32 °FLight snow. More clouds than sun.6 mph93%29.83 "Hg2 mi
1:08 pm32 °FLight snow. Mostly cloudy.8 mph93%29.84 "Hg2 mi
12:30 pm32 °FLight snow. Low clouds.6 mph93%29.85 "Hg1 mi
11:59 am30 °FLight snow. Low clouds.8 mph100%29.86 "Hg1 mi
11:46 am30 °FLight snow. Low clouds.6 mph100%29.86 "Hg1 mi
11:30 am30 °FLight snow. Mostly cloudy.7 mph100%29.87 "Hg1 mi
10:30 am30 °FLight snow. Mostly cloudy.7 mph93%29.88 "Hg12 mi
10:06 am30 °FLight snow. Ice fog.9 mph100%29.88 "Hg4 mi
9:30 am30 °FLight freezing rain. Fog.7 mph93%29.88 "Hg8 mi
8:30 am30 °FLight freezing rain. Ice fog.8 mph93%29.85 "Hg4 mi
7:45 am30 °FLight snow. Mostly cloudy.10 mph93%29.86 "Hg8 mi
7:30 am30 °FLight freezing rain. Ice fog.7 mph93%29.87 "Hg6 mi
7:04 am30 °FLight mixture of precip. Ice fog.9 mph93%29.86 "Hg2 mi
Weather by CustomWeather, © 2017

See weather overviewHow to use our weather pages